When you browse on this site, cookies collect data to enhance your experience and personalize the content and advertising you see.
Visit our Privacy Policy to learn more. By continuing to use the site, you agree to this use of cookies and data.
  • In Lithuania
  • List of Countries
  • For 7 days
  • Water Temperature
  • Satellite Maps
  • Weather Map
  • Weather Widgets
  • user-avatar
    Login

    Hourly Weather Faridkot

    Today, 14 December, Friday

    Time Temperature Precipitation Wind Pressure Humidity
    00:00 +14°C° 0 mm 1 mps 748 mmHg 58%
    01:00 +14°C° 0 mm 1 mps 748 mmHg 59%
    02:00 +13°C° 0 mm 1 mps 747 mmHg 59%
    03:00 +13°C° 0 mm 1 mps 748 mmHg 59%
    04:00 +13°C° 0 mm 1 mps 748 mmHg 59%
    05:00 +12°C° 0 mm 1 mps 747 mmHg 58%
    06:00 +12°C° 0 mm 1 mps 748 mmHg 56%
    07:00 +13°C° 0 mm 1 mps 748 mmHg 54%
    08:00 +13°C° 0 mm 1 mps 748 mmHg 51%
    09:00 +16°C° 0 mm 1 mps 749 mmHg 44%
    10:00 +18°C° 0 mm 2 mps 749 mmHg 37%
    11:00 +20°C° 0 mm 2 mps 749 mmHg 30%
    12:00 +21°C° 0 mm 2 mps 748 mmHg 28%
    13:00 +22°C° 0 mm 3 mps 748 mmHg 26%
    14:00 +24°C° 0 mm 3 mps 747 mmHg 23%
    15:00 +21°C° 0 mm 3 mps 747 mmHg 26%
    16:00 +20°C° 0 mm 2 mps 747 mmHg 28%
    17:00 +19°C° 0 mm 2 mps 747 mmHg 30%
    18:00 +18°C° 0 mm 2 mps 747 mmHg 32%
    19:00 +17°C° 0 mm 2 mps 747 mmHg 34%
    20:00 +16°C° 0 mm 2 mps 747 mmHg 37%
    21:00 +15°C° 0 mm 2 mps 747 mmHg 38%
    22:00 +15°C° 0 mm 2 mps 747 mmHg 39%
    23:00 +14°C° 0 mm 2 mps 747 mmHg 40%

    Tomorrow, 15 December, Saturday

    Time Temperature Precipitation Wind Pressure Humidity
    00:00 +14°C° 0 mm 1 mps 747 mmHg 40%
    01:00 +13°C° 0 mm 1 mps 747 mmHg 41%
    02:00 +13°C° 0 mm 1 mps 747 mmHg 41%
    03:00 +12°C° 0 mm 1 mps 747 mmHg 42%
    04:00 +12°C° 0 mm 1 mps 747 mmHg 42%
    05:00 +12°C° 0 mm 1 mps 747 mmHg 42%
    06:00 +12°C° 0 mm 1 mps 747 mmHg 41%
    07:00 +12°C° 0 mm 1 mps 747 mmHg 40%
    08:00 +13°C° 0 mm 1 mps 748 mmHg 39%
    09:00 +15°C° 0 mm 2 mps 748 mmHg 33%
    10:00 +18°C° 0 mm 2 mps 748 mmHg 27%
    11:00 +20°C° 0 mm 2 mps 749 mmHg 20%
    12:00 +21°C° 0 mm 2 mps 748 mmHg 19%
    13:00 +23°C° 0 mm 2 mps 748 mmHg 17%
    14:00 +24°C° 0 mm 2 mps 747 mmHg 15%
    15:00 +21°C° 0 mm 2 mps 747 mmHg 17%
    16:00 +20°C° 0 mm 2 mps 747 mmHg 18%
    17:00 +18°C° 0 mm 2 mps 747 mmHg 20%
    18:00 +17°C° 0 mm 2 mps 747 mmHg 21%
    19:00 +16°C° 0 mm 2 mps 747 mmHg 22%
    20:00 +15°C° 0 mm 2 mps 747 mmHg 22%
    21:00 +15°C° 0 mm 2 mps 747 mmHg 23%
    22:00 +14°C° 0 mm 2 mps 747 mmHg 24%
    23:00 +14°C° 0 mm 2 mps 747 mmHg 25%

    Day after tomorrow, 16 December, Sunday

    Time Temperature Precipitation Wind Pressure Humidity
    00:00 +13°C° 0 mm 2 mps 747 mmHg 26%
    01:00 +13°C° 0 mm 2 mps 747 mmHg 27%
    02:00 +12°C° 0 mm 2 mps 746 mmHg 28%
    03:00 +12°C° 0 mm 2 mps 746 mmHg 28%
    04:00 +10°C° 0 mm 2 mps 746 mmHg 28%
    05:00 +10°C° 0 mm 2 mps 746 mmHg 28%
    06:00 +11°C° 0 mm 1 mps 747 mmHg 27%
    07:00 +12°C° 0 mm 1 mps 747 mmHg 27%
    08:00 +12°C° 0 mm 1 mps 748 mmHg 26%
    09:00 +15°C° 0 mm 1 mps 748 mmHg 22%
    10:00 +18°C° 0 mm 1 mps 748 mmHg 18%
    11:00 +20°C° 0 mm 2 mps 749 mmHg 15%
    12:00 +21°C° 0 mm 2 mps 748 mmHg 13%
    13:00 +23°C° 0 mm 2 mps 747 mmHg 12%
    14:00 +24°C° 0 mm 2 mps 747 mmHg 11%
    15:00 +23°C° 0 mm 2 mps 746 mmHg 13%
    16:00 +20°C° 0 mm 2 mps 746 mmHg 15%
    17:00 +18°C° 0 mm 2 mps 746 mmHg 16%
    18:00 +18°C° 0 mm 1 mps 746 mmHg 18%
    19:00 +16°C° 0 mm 1 mps 746 mmHg 19%
    20:00 +15°C° 0 mm 1 mps 747 mmHg 20%
    21:00 +15°C° 0 mm 1 mps 747 mmHg 20%
    22:00 +14°C° 0 mm 1 mps 747 mmHg 21%
    23:00 +13°C° 0 mm 1 mps 747 mmHg 22%

    17 December, Monday

    Time Temperature Precipitation Wind Pressure Humidity
    00:00 +13°C° 0 mm 1 mps 746 mmHg 22%
    01:00 +12°C° 0 mm 1 mps 746 mmHg 22%
    02:00 +12°C° 0 mm 1 mps 746 mmHg 22%
    03:00 +12°C° 0 mm 1 mps 746 mmHg 22%
    04:00 +11°C° 0 mm 1 mps 746 mmHg 23%
    05:00 +11°C° 0 mm 1 mps 746 mmHg 23%
    06:00 +11°C° 0 mm 1 mps 746 mmHg 23%
    07:00 +12°C° 0 mm 1 mps 747 mmHg 23%
    08:00 +12°C° 0 mm 1 mps 747 mmHg 23%
    09:00 +15°C° 0 mm 1 mps 747 mmHg 20%
    10:00 +18°C° 0 mm 1 mps 747 mmHg 16%
    11:00 +21°C° 0 mm 1 mps 748 mmHg 13%
    12:00 +22°C° 0 mm 1 mps 747 mmHg 12%
    13:00 +23°C° 0 mm 2 mps 746 mmHg 11%
    14:00 +25°C° 0 mm 2 mps 746 mmHg 10%
    15:00 +23°C° 0 mm 2 mps 745 mmHg 11%
    16:00 +20°C° 0 mm 2 mps 745 mmHg 13%
    17:00 +19°C° 0 mm 1 mps 745 mmHg 15%
    18:00 +18°C° 0 mm 1 mps 745 mmHg 16%
    19:00 +16°C° 0 mm 1 mps 745 mmHg 17%
    20:00 +15°C° 0 mm 1 mps 746 mmHg 18%
    21:00 +15°C° 0 mm 1 mps 746 mmHg 18%
    22:00 +14°C° 0 mm 1 mps 746 mmHg 19%
    23:00 +13°C° 0 mm 1 mps 746 mmHg 19%

    18 December, Tuesday

    Time Temperature Precipitation Wind Pressure Humidity
    00:00 +13°C° 0 mm 1 mps 745 mmHg 19%
    01:00 +13°C° 0 mm 1 mps 745 mmHg 19%
    02:00 +12°C° 0 mm 1 mps 745 mmHg 20%
    03:00 +12°C° 0 mm 1 mps 745 mmHg 20%
    04:00 +11°C° 0 mm 1 mps 745 mmHg 20%
    05:00 +11°C° 0 mm 1 mps 744 mmHg 20%
    06:00 +11°C° 0 mm 1 mps 745 mmHg 20%
    07:00 +12°C° 0 mm 1 mps 745 mmHg 20%
    08:00 +12°C° 0 mm 1 mps 746 mmHg 21%
    09:00 +15°C° 0 mm 1 mps 746 mmHg 18%
    10:00 +19°C° 0 mm 1 mps 746 mmHg 15%
    11:00 +20°C° 0 mm 2 mps 746 mmHg 12%
    12:00 +23°C° 0 mm 2 mps 746 mmHg 11%
    13:00 +24°C° 0 mm 2 mps 745 mmHg 10%
    14:00 +25°C° 0 mm 2 mps 744 mmHg 9%
    15:00 +23°C° 0 mm 2 mps 744 mmHg 10%
    16:00 +21°C° 0 mm 2 mps 744 mmHg 11%
    17:00 +20°C° 0 mm 1 mps 744 mmHg 12%
    18:00 +19°C° 0 mm 1 mps 744 mmHg 13%
    19:00 +16°C° 0 mm 1 mps 744 mmHg 13%
    20:00 +15°C° 0 mm 1 mps 744 mmHg 13%
    21:00 +15°C° 0 mm 1 mps 744 mmHg 14%
    22:00 +14°C° 0 mm 1 mps 744 mmHg 14%
    23:00 +14°C° 0 mm 1 mps 744 mmHg 14%

    19 December, Wednesday

    Time Temperature Precipitation Wind Pressure Humidity
    00:00 +13°C° 0 mm 1 mps 744 mmHg 15%
    01:00 +13°C° 0 mm 1 mps 743 mmHg 15%
    02:00 +13°C° 0 mm 1 mps 743 mmHg 15%
    03:00 +12°C° 0 mm 1 mps 743 mmHg 15%
    04:00 +12°C° 0 mm 1 mps 743 mmHg 15%
    05:00 +10°C° 0 mm 2 mps 743 mmHg 15%
    06:00 +12°C° 0 mm 1 mps 743 mmHg 16%
    07:00 +12°C° 0 mm 1 mps 744 mmHg 16%
    08:00 +12°C° 0 mm 1 mps 744 mmHg 17%
    09:00 +15°C° 0 mm 2 mps 745 mmHg 15%
    10:00 +18°C° 0 mm 2 mps 745 mmHg 12%
    11:00 +21°C° 0 mm 2 mps 746 mmHg 10%
    12:00 +23°C° 0 mm 2 mps 745 mmHg 9%
    13:00 +25°C° 0 mm 2 mps 744 mmHg 8%
    14:00 +26°C° 0 mm 2 mps 744 mmHg 7%
    15:00 +24°C° 0 mm 2 mps 744 mmHg 9%
    16:00 +22°C° 0 mm 1 mps 744 mmHg 10%
    17:00 +20°C° 0 mm 1 mps 743 mmHg 11%
    18:00 +19°C° 0 mm 1 mps 744 mmHg 12%
    19:00 +16°C° 0 mm 0 mps 744 mmHg 12%
    20:00 +14°C° 0 mm 0 mps 744 mmHg 13%
    21:00 +14°C° 0 mm 0 mps 744 mmHg 13%
    22:00 +13°C° 0 mm 0 mps 744 mmHg 14%
    23:00 +13°C° 0 mm 0 mps 744 mmHg 14%
    Show more